EW3016 Weather Reports


Display with metric or nautical units.
time (UTC)temp
F
wind
direction
speed
MPH
gust
MPH
rain 1hr
in
rain 24hr
in
rain mn
in
humidity
%
barometer
mb
20260903080018 65 0.0 0.0 0.02 1.69 0.26 96 1016.4
20260903073017 65 0.0 0.0 0.14 1.68 0.25 96 1016.2
20260903070017 66 0.0 0.0 0.16 1.67 0.24 96 1016.0
20260903063017 66 0.0 0.0 0.06 1.54 0.11 96 1016.0
20260903060018 65 158 1.0 11.0 0.03 1.51 0.08 96 1016.0
20260903053017 65 135 3.0 12.0 0.04 1.48 0.05 96 1015.9
20260903050017 65 135 1.0 12.0 0.05 1.48 0.05 96 1016.4
20260903043017 64 135 1.0 11.0 0.05 1.44 0.01 95 1017.4
20260903040017 64 135 3.0 12.0 0.13 1.43 1.43 95 1016.4
20260903033037 64 135 1.0 13.0 0.35 1.39 1.39 95 1016.6
20260903030017 64 135 3.0 14.0 0.86 1.30 1.30 96 1018.1
20260903023137 65 135 3.0 14.0 0.62 1.04 1.06 95 1019.4
20260903020057 65 135 6.0 18.0 0.02 0.44 0.44 94 1018.3
20260903013017 65 113 7.0 16.0 0.00 0.42 0.42 93 1018.5
20260903010017 65 113 4.0 15.0 0.00 0.42 0.42 92 1018.2
20260903003037 66 113 5.0 16.0 0.00 0.42 0.42 93 1017.7
20260903000037 66 135 4.0 15.0 0.00 0.42 0.42 93 1017.7
20260902233017 66 113 3.0 12.0 0.00 0.42 0.42 93 1017.3
20260902230036 67 135 5.0 14.0 0.00 0.42 0.42 92 1018.0
20260902223016 67 135 3.0 13.0 0.00 0.42 0.42 92 1018.5
20260902220017 68 135 4.0 14.0 0.00 0.67 0.42 91 1018.6
20260902213018 69 135 5.0 13.0 0.00 0.67 0.42 90 1018.5
20260902210016 69 135 5.0 14.0 0.00 0.67 0.42 90 1018.7
20260902203016 69 135 3.0 14.0 0.00 0.67 0.42 90 1018.8
20260902200016 69 135 2.0 13.0 0.00 0.67 0.42 90 1019.0
20260902193016 69 135 5.0 15.0 0.00 0.67 0.42 90 1019.2
20260902190016 69 135 7.0 16.0 0.00 0.67 0.42 90 1019.0
20260902183016 69 113 5.0 14.0 0.00 0.67 0.42 93 1019.3
20260902180017 67 113 2.0 10.0 0.00 0.67 0.42 95 1019.7
20260902173016 67 113 1.0 11.0 0.02 0.67 0.42 95 1019.9
20260902170016 66 113 1.0 7.0 0.08 0.67 0.42 96 1019.8
20260902163016 65 113 1.0 8.0 0.40 0.65 0.40 96 1019.8
20260902160016 65 0.0 4.0 0.34 0.59 0.34 95 1020.5
20260902153016 66 135 2.0 10.0 0.00 0.25 0.00 94 1020.4
20260902150016 66 113 4.0 11.0 0.00 0.25 0.00 95 1019.6
20260902143016 66 135 5.0 13.0 0.00 0.25 0.00 95 1019.7
20260902140016 66 113 4.0 13.0 0.00 0.25 0.00 96 1020.1
20260902133017 67 0.0 4.0 0.00 0.25 0.00 96 1019.9
20260902130016 67 0.0 10.0 0.00 0.25 0.00 96 1020.0
20260902123016 68 113 2.0 9.0 0.00 0.25 0.00 96 1019.3
20260902120016 68 135 1.0 7.0 0.00 0.25 0.00 97 1019.3
20260902113016 68 113 2.0 8.0 0.00 0.26 0.00 97 1019.2
20260902110017 68 0.0 0.0 0.00 0.46 0.00 97 1019.5
20260902103015 68 0.0 0.0 0.00 0.47 0.00 97 1019.9
20260902100016 68 0.0 0.0 0.00 0.47 0.00 97 1019.8
20260902093036 68 0.0 0.0 0.00 0.47 0.00 97 1019.6
20260902090015 69 0.0 0.0 0.00 0.51 0.00 97 1019.3
20260902083015 69 0.0 0.0 0.00 0.52 0.00 97 1019.2